Date String (YYYY-MM-DD hh:mm:ss) UTC,Instrument flags,Ambient pressure (hPa),Sample flow (lpm),Bypass flow (lpm),Sample temperature (°C),Ambient temperature (°C),ASC tube jacket temperature (°C),LED temperature (°C),Box temperature (°C),Sample RH (%),Span deviation,Mass concentration (μg/m³),Mass concentration (μg/m³),Mass concentration (μg/m³)
DateTimeUTC,F1_M11,P_M11,Q1_M11,Q2_M11,T1_M11,T2_M11,T3_M11,T4_M11,T5_M11,U1_M11,ZSPAN_M11,X0_M11,X2_M11,X1_M11
2023-02-01 06:00:00,,0825.4,5.00,0.00,22.1,21.9,00.0,30.8,23.9,07.4,0001.8,0023.24,0013.90,0012.96
2023-02-01 06:01:00,,0825.4,5.01,0.00,22.0,21.2,00.0,30.8,23.7,07.4,0002.2,0023.07,0013.78,0012.84
2023-02-01 06:02:00,,0825.4,5.00,0.00,22.0,20.7,00.0,30.8,23.6,07.4,0002.1,0022.91,0013.76,0012.81
2023-02-01 06:03:00,,0825.4,5.01,0.00,21.9,20.5,00.0,30.8,23.5,07.4,0001.8,0022.72,0013.80,0012.84
2023-02-01 06:04:00,,0825.4,4.98,0.00,21.9,20.4,00.0,30.8,23.5,07.4,0002.0,0022.40,0013.88,0012.87
2023-02-01 06:05:00,,0825.4,4.99,0.00,21.9,20.2,00.0,30.8,23.5,07.5,0002.1,0022.44,0013.92,0012.90
2023-02-01 06:06:00,,0825.4,5.03,0.00,21.8,20.0,00.0,30.8,23.3,07.6,0002.0,0022.65,0013.94,0012.92
2023-02-01 06:07:00,,0825.5,5.00,0.00,21.8,20.0,00.0,30.8,23.3,07.6,0002.1,0022.54,0013.90,0012.91
2023-02-01 06:08:00,,0825.5,5.02,0.00,21.8,21.2,00.0,30.7,23.6,07.6,0002.3,0022.87,0013.94,0012.93
2023-02-01 06:09:00,,0825.5,5.00,0.00,22.0,22.2,00.0,30.7,23.9,07.5,0001.9,0023.08,0014.08,0013.05
2023-02-01 06:10:00,,0825.5,4.99,0.00,22.1,22.4,00.0,30.8,24.0,07.4,0002.0,0023.69,0014.19,0013.17
2023-02-01 06:11:00,,0825.5,5.00,0.00,22.0,21.6,00.0,30.8,23.8,07.4,0002.1,0023.30,0014.36,0013.31
2023-02-01 06:12:00,,0825.4,5.00,0.00,22.0,21.0,00.0,30.8,23.7,07.4,0001.4,0023.43,0014.49,0013.46
2023-02-01 06:13:00,,0825.4,5.00,0.00,22.0,20.8,00.0,30.8,23.6,07.3,0001.3,0023.73,0014.62,0013.64
2023-02-01 06:14:00,,0825.4,5.00,0.00,21.9,20.6,00.0,30.8,23.6,07.4,0000.8,0024.01,0014.78,0013.83
2023-02-01 06:15:00,,0825.4,4.99,0.00,21.9,20.4,00.0,30.8,23.6,07.4,0000.7,0024.02,0014.94,0014.02
2023-02-01 06:16:00,,0825.4,4.99,0.00,21.9,20.3,00.0,30.8,23.5,07.4,0000.6,0024.53,0015.17,0014.25
2023-02-01 06:17:00,,0825.4,5.01,0.00,21.9,20.1,00.0,30.8,23.4,07.4,0000.7,0024.69,0015.45,0014.48
2023-02-01 06:18:00,,0825.4,4.99,0.00,21.8,20.4,00.0,30.8,23.4,07.4,0000.7,0025.27,0015.70,0014.73
2023-02-01 06:19:00,,0825.4,5.01,0.00,21.9,21.5,00.0,30.7,23.8,07.3,0000.7,0025.84,0015.99,0015.04
2023-02-01 06:20:00,,0825.4,5.00,0.00,22.0,22.4,00.0,30.7,24.0,07.3,0001.2,0026.41,0016.21,0015.24
2023-02-01 06:21:00,,0825.3,5.00,0.00,22.1,22.2,00.0,30.8,24.1,07.2,0001.5,0027.04,0016.39,0015.40
2023-02-01 06:22:00,,0825.4,4.99,0.00,22.1,21.6,00.0,30.8,23.9,07.3,0000.9,0027.09,0016.49,0015.54
2023-02-01 06:23:00,,0825.4,5.00,0.00,22.1,21.1,00.0,30.9,23.8,07.3,0001.3,0027.26,0016.49,0015.53
2023-02-01 06:24:00,,0825.4,4.99,0.00,22.0,20.5,00.0,30.9,23.6,07.3,0001.1,0027.13,0016.49,0015.50
2023-02-01 06:25:00,,0825.4,5.01,0.00,21.9,20.1,00.0,30.9,23.5,07.3,0001.2,0027.04,0016.51,0015.52
2023-02-01 06:26:00,,0825.4,5.03,0.00,21.9,19.8,00.0,30.8,23.3,07.3,0001.2,0028.32,0016.54,0015.55
2023-02-01 06:27:00,,0825.4,4.95,0.00,21.8,19.8,00.0,30.8,23.3,07.4,0001.2,0028.16,0016.49,0015.53
2023-02-01 06:28:00,,0825.3,5.02,0.00,21.9,20.8,00.0,30.8,23.6,07.5,0001.0,0027.84,0016.40,0015.53
2023-02-01 06:29:00,,0825.4,5.01,0.00,22.0,22.0,00.0,30.8,23.9,07.5,0000.6,0027.71,0016.37,0015.53
2023-02-01 06:30:00,,0825.4,4.99,0.00,22.1,22.5,00.0,30.8,24.0,07.3,0000.4,0027.58,0016.40,0015.55
2023-02-01 06:31:00,,0825.3,5.00,0.00,22.1,22.0,00.0,30.8,24.0,07.5,-000.0,0027.14,0016.28,0015.43
2023-02-01 06:32:00,,0825.3,5.01,0.00,22.1,21.5,00.0,30.9,23.8,07.5,-000.5,0026.60,0016.21,0015.32
2023-02-01 06:33:00,,0825.3,5.00,0.00,22.0,21.1,00.0,30.9,23.7,07.5,-000.3,0026.31,0016.21,0015.32
2023-02-01 06:34:00,,0825.3,5.01,0.00,22.0,20.8,00.0,30.9,23.7,07.5,-000.4,0027.18,0016.12,0015.26
2023-02-01 06:35:00,,0825.3,5.00,0.00,22.0,20.5,00.0,30.9,23.6,07.6,-000.4,0027.41,0016.01,0015.15
2023-02-01 06:36:00,,0825.3,5.00,0.00,21.9,20.3,00.0,30.9,23.5,07.6,-000.2,0027.77,0015.98,0015.10
2023-02-01 06:37:00,,0825.3,4.96,0.00,21.9,20.2,00.0,30.8,23.4,07.6,-000.4,0026.71,0015.98,0015.04
2023-02-01 06:38:00,,0825.4,5.03,0.00,21.9,20.3,00.0,30.8,23.4,07.5,-000.8,0028.27,0016.01,0015.03
2023-02-01 06:39:00,,0825.3,4.96,0.00,21.9,21.4,00.0,30.8,23.7,07.5,-000.9,0029.10,0016.02,0015.01
2023-02-01 06:40:00,,0825.2,5.03,0.00,22.0,22.3,00.0,30.8,24.0,07.4,-000.7,0028.62,0016.02,0014.97
2023-02-01 06:41:00,,0825.2,4.98,0.00,22.1,22.5,00.0,30.8,24.1,07.4,-000.4,0028.03,0015.88,0014.89
2023-02-01 06:42:00,,0825.2,4.99,0.00,22.2,22.0,00.0,30.9,24.0,07.3,-000.1,0028.01,0015.93,0014.99
2023-02-01 06:43:00,,0825.3,5.00,0.00,22.1,21.5,00.0,30.9,23.9,07.3,0000.2,0028.27,0015.81,0014.93
2023-02-01 06:44:00,,0825.4,4.99,0.00,22.1,21.1,00.0,30.9,23.8,07.1,0000.1,0027.82,0015.72,0014.85
2023-02-01 06:45:00,,0825.3,5.00,0.00,22.1,20.7,00.0,30.9,23.7,07.1,0000.4,0027.18,0015.76,0014.88
2023-02-01 06:46:00,,0825.3,4.99,0.00,22.0,20.5,00.0,30.9,23.6,07.1,0000.9,0027.06,0015.78,0014.91
2023-02-01 06:47:00,,0825.2,5.00,0.00,22.0,20.3,00.0,30.9,23.6,07.1,0000.8,0026.85,0015.63,0014.76
2023-02-01 06:48:00,,0825.2,4.97,0.00,21.9,20.0,00.0,30.9,23.4,07.2,0001.1,0027.61,0015.47,0014.61
2023-02-01 06:49:00,,0825.3,5.03,0.00,21.9,20.4,00.0,30.8,23.5,07.1,0001.5,0026.33,0015.38,0014.52
2023-02-01 06:50:00,,0825.4,4.98,0.00,22.0,21.6,00.0,30.8,23.8,07.1,0001.7,0025.44,0015.38,0014.49
2023-02-01 06:51:00,,0825.3,5.03,0.00,22.1,22.4,00.0,30.8,24.1,07.1,0001.9,0026.58,0015.26,0014.37
2023-02-01 06:52:00,,0825.3,4.98,0.00,22.2,22.1,00.0,30.9,24.1,07.3,0001.9,0026.54,0015.00,0014.06
2023-02-01 06:53:00,,0825.3,4.98,0.00,22.1,21.6,00.0,30.9,23.9,07.1,0001.7,0026.20,0014.81,0013.81
2023-02-01 06:54:00,,0825.3,5.00,0.00,22.1,21.2,00.0,30.9,23.8,07.3,0001.5,0025.72,0014.73,0013.65
2023-02-01 06:55:00,,0825.3,4.98,0.00,22.1,20.9,00.0,30.9,23.7,07.4,0001.7,0026.03,0014.35,0013.23
2023-02-01 06:56:00,,0825.2,5.02,0.00,22.0,20.6,00.0,30.9,23.6,07.4,0001.4,0025.57,0013.94,0012.80
2023-02-01 06:57:00,,0825.2,5.01,0.00,22.0,20.4,00.0,30.9,23.5,07.5,0001.2,0025.67,0013.70,0012.53
2023-02-01 06:58:00,,0825.2,5.02,0.00,21.9,20.2,00.0,30.9,23.5,07.6,0001.3,0024.96,0013.43,0012.26
2023-02-01 06:59:00,,0825.2,5.01,0.00,21.9,20.6,00.0,30.9,23.6,07.5,0001.1,0023.56,0013.16,0011.99
